星链-5338 (STARLINK-5338 )

导读

STARLINK-5338是美国SpaceX星链星座的成员,于2023年1月19日发射升空,旨在为全球提供低延迟、高速率的卫星互联网覆盖服务。它运行在近地轨道,通过星间链路与同星座卫星协同组网,进一步扩大了星链系统的全球服务覆盖范围,推动低轨卫星互联网的部署进程。

基本信息
目录编号:
55286
目录名称:
STARLINK-5338
国际标识:
2023-010T
轨道中心:
EARTH
卫星名称:
星链-5338
卫星全名:
星链-5338 (STARLINK-5338 )
卫星状态:
在轨 (已飞行1245 天)
发射日期:
2023-01-19 UTC
国别 :
美国 (US)
星等 :
--
轨道信息
数据来源 国际轨道数据 AOE轨道数据
星历时间 2026-06-17T12:50:50+0800
4小时前
查看轨道信息
2026-06-15T05:00:00+0800
2天前
查看轨道信息
半长轴 6950.197km 6950.145km
偏心率 0.0003857 0.0003447
轨道倾角 69.999° 70.000°
近地点辐角 268.553° 262.335°
升交点赤经 133.611° 139.476°
平近点角 91.518° 149.698°
近地点 569.379km 569.612km
远地点 574.741km 574.404km
周期 96.107分钟 96.106分钟
每日圈数 14.983289 14.983456
详细信息
固有亮度:
5
最大亮度:
2.5
卫星平台:
Starlink v1.5
覆盖范围:
全球
运营商:
太空探索技术公司
运营商所在国:
美国
制造商(研发单位):
太空探索技术公司
制造商所在国:
美国
使用方式:
暂无
卫星简介
星链(Starlink)计划是由太空探索技术公司(SpaceX)提出的一个巨型低轨卫星互联网星座项目,计划在2019年至2024年间在太空搭建由约1.2万颗卫星组成的“星链”网络,其中1584颗将部署在地球上空550千米处的近地轨道,并从2020年开始工作。该卫星仍在工作。
2D轨道图
3D轨道图
轨道高度分析图
轨道倾角分析图
轨道综合分析图
查看轨道综合分析图